Overview Statistics Trail Chart Weather Telemetry Raw packets
 

This is the latest recevied weather packets stored in our database for station/object KY0TEQ-13. If no packets are shown the sender has not sent any weather packets the latest 10 day(s).

<< 34 35 36 37 38 39 40 >>
Time Temp. Humidity Pressure Rain* Wind** Luminosity Snow
1788454017 22.22° C 37% 1309.9 hPa 0 mm - 568 W/m² -
1788453713 21.67° C 38% 1309.7 hPa 0 mm - 557 W/m² -
1788453413 21.11° C 39% 1309.9 hPa 0 mm - 547 W/m² -
1788453104 21.67° C 38% 1309.9 hPa 0 mm - 537 W/m² -
1788452800 21.11° C 39% 1309.6 hPa 0 mm - 526 W/m² -
1788452496 21.11° C 40% 1309.7 hPa 0 mm - 513 W/m² -
1788452196 20.56° C 42% 1309.7 hPa 0 mm - 502 W/m² -
1788451886 20.56° C 40% 1309.9 hPa 0 mm - 489 W/m² -
1788451581 21.11° C 42% 1309.7 hPa 0 mm - 476 W/m² -
1788451275 20.56° C 41% 1309.7 hPa 0 mm - 463 W/m² -
1788450975 20.56° C 42% 1309.7 hPa 0 mm - 451 W/m² -
1788450670 20° C 43% 1310 hPa 0 mm - 436 W/m² -
1788450366 19.44° C 45% 1309.7 hPa 0 mm - 421 W/m² -
1788450062 19.44° C 46% 1309.9 hPa 0 mm - 384 W/m² -
1788449757 18.89° C 47% 1309.9 hPa 0 mm - 390 W/m² -
1788449452 18.89° C 48% 1309.7 hPa 0 mm - 374 W/m² -
1788449148 18.89° C 46% 1309.7 hPa 0 mm - 359 W/m² -
1788448845 18.33° C 50% 1310.1 hPa 0 mm - 40 W/m² -
1788448543 17.78° C 47% 1310 hPa 0 mm - 316 W/m² -
1788448239 17.78° C 50% 1310 hPa 0 mm - 35 W/m² -
1788447938 17.22° C 54% 1310.1 hPa 0 mm - 288 W/m² -
1788447634 17.22° C 52% 1309.9 hPa 0 mm - 115 W/m² -
1788447328 17.78° C 52% 1310 hPa 0 mm - 248 W/m² -
1788447024 17.22° C 51% 1310 hPa 0 mm - 235 W/m² -
1788446722 16.67° C 52% 1309.9 hPa 0 mm - 209 W/m² -

* Rain latest hour (hover to see other rain measurements)
** Current wind speed in m/s (hover to see current wind gust speed)